SCP
0 0 0 0 0 0 0 0 0 0 0 0 0 0 0 0 0 0 0 0 0 0 0 0 0 0 0 0 0 0 0 0 0 0 0 0 0 0 0 0 0 0 0
0 0 0 0 0 0 0 0 0 0 0 0 0 0 0 0 0 0 0 0 0 0 0 0 0 0 0 0 0 0 0 0 0 0 0 0 0 0 0 0 0 0 0
0 0 0 0 0 0 0 0 0 0 0 0 0 0 0 0 0 0 0 0 0 0 0 0 0 0 0 0 0 0 0 0 0 0 0 0 0 0 0 0 0 0 0
0 0 0 0 0 0 0 0 0 0 0 0 0 0 0 0 0 0 0 0 0 0 0 0 0 0 0 0 0 0 0 0 0 0 0 0 0 0 0 0 0 0 0
0 0 0 0 0 0 0 0 0 0 0 0 0 0 0 0 0 0 0 0 0 0 0 0 0 0 0 0 0 0 0 0 0 0 0 0 0 0 0 0 0 0 0
0 0 0 0 0 0 0 0 0 0 0 0 0 0 0 0 0 0 0 0 0 0 0 0 0 0 0 0 0 0 0 0 0 0 0 0 0 0 0 0 0 0 0
0 0 0 0 0 0 0 0 0 0 0 0 0 0 0 0 0 0 0 0 0 0 0 0 0 0 0 0 0 0 0 0 0 0 0 0 0 0 0 0 0 0 0
0 0 0 0 0 0 0 0 0 0 0 0 0 0 0 0 0 0 0 0 0 0 0 0 0 0 0 0 0 0 0 0 0 0 0 0 0 0 0 0 0 0 0
0 0 0 0 0 0 0 0 0 0 0 0 0 0 0 0 0 0 0 0 0 0 0 0 0 0 0 0 0 0 0 0 0 0 0 0 0 0 0 0 0 0 0
0 0 0 0 0 0 0 0 0 0 0 0 0 0 0 0 0 0 0 0 0 0 0 0 0 0 0 0 0 0 0 0 0 0 0 0 0 0 0 0 0 0 0
0 0 0 0 0 0 0 0 0 0 0 0 0 0 0 0 0 0 0 0 0 0 0 0 0 0 0 0 0 0 0 0 0 0 0 0 0 0 0 0 0 0 0
0 0 0 0 0 0 0 0 0 0 0 0 0 0 0 0 0 0 0 0 0 0 0 0 0 0 0 0 0 0 0 0 0 0 0 0 0 0 0 0 0 0 0
0 0 0 0 0 0 0 0 0 0 0 0 0 0 0 0 0 0 0 0 0 0 0 0 0 0 0 0 0 0 0 0 0 0 0 0 0 0 0 0 0 0 0
0 0 0 0 0 0 0 0 0 0 0 0 0 0 0 0 0 0 0 0 0 0 0 0 0 0 0 0 0 0 0 0 0 0 0 0 0 0 0 0 0 0 0
0 0 0 0 0 0 0 0 0 0 0 0 0 0 0 0 0 0 0 0 0 0 0 0 0 0 0 0 0 0 0 0 0 0 0 0 0 0 0 0 0 0 0
0 0 0 0 0 0 0 0 0 0 0 0 0 0 0 0 0 0 0 0 0 0 0 0 0 0 0 0 0 0 0 0 0 0 0 0 0 0 0 0 0 0 0
0 0 0 0 0 0 0 0 0 0 0 0 0 0 0 0 0 0 0 0 0 0 0 0 0 0 0 0 0 0 0 0 0 0 0 0 0 0 0 0 0 0 0
0 0 0 0 0 0 0 0 0 0 0 0 0 0 0 0 0 0 0 0 0 0 0 0 0 0 0 0 0 0 0 0 0 0 0 0 0 0 0 0 0 0 0
0 0 0 0 0 0 0 0 0 0 0 0 0 0 0 0 0 0 0 0 0 0 0 0 0 0 0 0 0 0 0 0 0 0 0 0 0 0 0 0 0 0 0
0 0 0 0 0 0 0 0 0 0 0 0 0 0 0 0 0 0 0 0 0 0 0 0 0 0 0 0 0 0 0 0 0 0 0 0 0 0 0 0 0 0 0
0 0 0 0 0 0 0 0 0 0 0 0 0 0 0 0 0 0 0 0 0 0 0 0 0 0 0 0 0 0 0 0 0 0 0 0 0 0 0 0 0 0 0
0 0 0 0 0 0 0 0 0 0 0 0 0 0 0 0 0 0 0 0 0 0 0 0 0 0 0 0 0 0 0 0 0 0 0 0 0 -0 0 0 0 0 0
0 0 0 0 0 0 0 0 0 0 0 0 0 0 0 0 0 0 0 0 0 0 0 0 0 0 0 0 0 0 0 0 0 0 0 0 0 -0 -0 0 0 0 0
0 0 0 0 0 0 0 0 0 0 0 0 0 0 0 0 0 0 0 0 0 0 0 0 0 0 0 0 0 0 0 0 0 0 0 0 0 -0 -0 0 0 0 0
0 0 0 0 0 0 0 0 0 0 0 0 0 0 0 0 0 0 0 0 0 0 0 0 0 0 0 0 0 0 0 0 0 0 0 0 -0 -0 -0 0 0 0 0
0 0 0 0 0 0 0 0 0 0 0 0 0 0 0 0 0 0 0 0 0 0 0 0 0 0 0 0 0 0 0 0 0 0 0 -0 -0 -0 -0 -0 0 0 0
Wind_Speed
3 4 9 10 9 9 9 9 10 9 9 10 10 10 10 10 10 10 10 9 9 9 9 9 10 9 10 10 10 11 11 11 11 11 10 10 11 11 11 11 10 7 12
5 5 9 10 10 9 9 9 9 9 9 9 10 10 9 9 10 9 9 9 9 9 9 9 9 9 9 9 9 10 10 10 10 10 9 7 8 10 10 10 9 7 11
5 6 8 10 9 9 9 8 8 9 9 8 9 9 9 9 9 9 9 9 9 9 9 9 8 8 8 9 8 8 9 9 9 9 8 4 5 9 9 9 9 10 10
5 5 6 9 9 9 9 9 9 9 8 8 8 8 8 9 9 9 8 8 8 8 8 8 8 8 8 8 8 7 8 8 8 7 4 3 3 7 9 9 9 10 11
5 4 5 9 9 9 9 9 9 8 8 8 8 8 8 8 8 8 8 8 8 8 8 8 7 7 7 7 7 7 7 8 8 6 3 3 2 7 8 8 9 9 10
4 3 4 8 8 8 8 8 8 8 8 8 7 7 8 8 8 8 8 8 8 8 7 8 7 7 6 6 7 7 8 8 6 4 3 2 2 6 8 8 8 8 9
4 3 4 7 7 8 8 8 8 8 8 8 8 8 8 8 8 9 9 8 8 7 7 7 7 7 6 6 7 8 8 8 5 3 3 2 2 6 7 8 8 8 8
4 3 3 6 7 7 7 8 8 8 8 8 8 8 8 8 9 9 9 8 8 7 7 7 6 6 6 6 7 8 8 7 5 3 3 2 4 6 7 7 7 7 8
2 2 2 2 4 6 6 6 6 7 7 8 8 8 7 8 8 9 8 8 7 7 7 6 6 6 6 7 7 8 8 7 4 2 2 1 4 6 7 7 8 8 8
1 1 1 2 2 2 3 5 6 5 6 7 8 7 7 7 7 7 7 7 7 6 6 6 6 6 6 7 7 8 8 6 3 2 1 2 5 6 6 7 7 8 8
0 0 1 2 2 2 2 4 4 5 6 6 6 8 6 4 4 4 5 6 6 6 6 6 6 7 6 6 7 7 6 2 2 1 1 3 5 6 6 6 7 8 8
2 2 1 1 2 2 2 2 2 3 3 3 3 4 3 3 3 4 5 6 6 6 6 6 6 6 5 3 4 5 2 3 2 1 1 4 5 5 6 6 6 7 7
3 2 2 2 2 3 2 2 2 2 2 3 4 4 4 3 3 3 2 3 3 4 3 4 4 3 2 2 2 2 2 2 1 1 2 4 4 5 5 6 7 7 7
4 4 2 2 2 2 2 2 3 2 2 2 3 4 4 3 2 2 2 2 2 2 2 2 2 2 2 2 3 3 3 2 2 1 2 4 4 5 5 6 6 6 6
5 5 4 3 3 3 2 2 3 3 3 3 3 3 4 3 3 3 2 2 2 2 2 2 2 2 2 2 2 3 3 3 2 2 2 4 4 4 5 5 5 5 5
6 6 5 4 4 4 3 3 3 3 3 3 3 3 4 3 3 3 3 2 2 2 2 2 2 2 2 2 3 3 3 2 3 2 2 3 5 5 4 4 4 4 4
7 6 6 5 5 5 4 4 3 3 4 3 3 3 4 3 4 4 3 2 2 2 3 2 3 2 2 2 3 2 2 2 2 2 2 2 2 4 5 5 4 4 4
6 6 6 5 5 6 5 4 3 4 4 3 3 3 4 4 4 4 3 3 2 2 3 3 2 2 2 2 2 2 2 2 2 2 2 2 2 2 3 5 4 4 4
6 6 6 5 5 6 5 4 3 4 4 3 3 3 3 4 4 4 4 3 3 3 2 3 2 2 2 2 2 2 1 1 1 2 1 2 1 2 1 3 4 4 3
5 5 5 5 5 5 4 3 2 3 3 2 3 3 4 4 4 4 3 4 4 3 3 2 2 2 2 3 3 2 2 1 1 1 1 1 1 1 1 1 2 2 3
4 5 5 5 5 4 3 4 4 4 3 3 2 3 4 4 5 4 3 4 4 4 4 4 3 3 2 2 3 2 2 2 1 1 1 1 1 1 1 1 1 1 1
5 5 5 5 5 5 4 4 3 4 3 3 2 3 3 4 5 4 5 4 5 4 5 4 4 3 1 1 2 2 1 1 1 1 0 1 0 1 1 0 1 1 1
6 6 6 6 6 6 5 4 3 3 2 2 2 2 3 4 4 4 5 5 5 5 5 5 6 5 3 1 1 2 3 3 1 1 1 0 0 0 0 0 0 0 0
6 5 5 6 5 5 6 6 7 5 5 4 4 3 3 4 5 5 5 5 5 5 5 6 5 3 5 3 1 1 1 3 3 1 1 1 1 1 1 1 1 1 0
5 5 5 5 5 5 6 7 7 5 4 3 4 4 4 3 4 5 5 5 5 4 5 6 5 4 4 4 3 2 2 1 1 2 2 1 1 2 1 1 1 1 1
3 4 4 5 5 5 6 6 7 7 7 6 5 5 4 2 3 4 5 5 5 4 5 5 5 6 4 4 3 2 2 2 2 2 2 1 2 2 1 1 1 1 1
Wind_Direction
180 180 173 155 148 141 134 130 127 125 122 120 120 121 124 125 122 120 120 119 115 111 107 103 100 99 98 97 94 91 92 92 90 85 83 85 89 90 88 86 82 77 84
166 172 170 157 151 144 137 134 134 131 127 125 124 123 125 127 128 126 123 120 116 114 110 106 102 103 103 102 97 94 92 92 91 86 78 75 85 92 92 91 91 88 87
151 161 166 158 153 149 143 139 138 136 133 131 129 128 127 127 131 132 129 123 117 113 108 105 103 105 104 103 101 99 97 96 92 87 77 65 85 97 98 95 93 90 88
146 149 159 157 156 153 148 146 142 141 139 136 135 134 131 128 128 130 130 126 120 114 108 105 104 105 105 106 106 105 104 104 96 86 70 57 71 99 101 98 94 93 90
139 142 156 156 159 157 153 152 150 146 144 140 140 138 134 131 132 129 124 118 116 114 111 109 107 109 108 109 110 110 107 106 97 83 71 59 57 101 101 100 96 95 93
134 138 157 154 162 161 157 158 156 153 149 147 143 141 138 133 132 126 117 110 107 111 112 111 108 107 106 110 113 112 107 103 90 79 71 59 67 105 104 103 101 101 99
138 139 155 152 157 161 163 162 160 156 152 151 148 145 140 135 132 122 116 111 110 111 112 109 108 108 105 110 115 112 106 102 93 82 72 63 91 103 106 107 103 104 102
142 141 153 156 151 154 162 164 164 160 156 152 148 144 139 132 127 123 119 116 116 114 110 108 107 108 107 106 109 109 106 102 99 87 79 69 94 101 102 105 103 103 102
126 131 142 152 153 155 157 159 161 160 157 150 144 138 132 124 124 123 119 117 117 114 110 106 103 106 107 105 104 104 102 96 92 82 85 75 98 104 101 100 100 98 99
93 124 146 141 133 141 155 153 153 149 152 146 138 131 127 123 123 121 119 116 117 115 112 105 101 101 101 102 101 100 98 90 85 75 64 87 99 103 104 104 105 103 99
127 176 161 159 146 138 144 147 143 146 149 146 140 131 124 120 120 118 114 114 115 115 115 108 102 98 90 93 96 95 90 82 88 69 55 97 104 101 101 103 102 102 100
209 222 198 182 173 157 151 132 132 135 142 142 135 136 128 120 117 112 120 116 115 112 112 108 103 95 80 74 80 81 76 81 73 53 66 96 105 101 99 99 101 101 101
207 212 203 191 182 169 155 144 137 132 129 125 130 128 123 118 114 104 107 102 99 95 86 90 83 79 87 91 84 79 81 75 62 33 51 87 103 103 103 104 103 103 101
205 217 212 186 173 178 162 154 147 142 137 135 138 133 130 128 126 124 114 105 94 92 94 85 90 90 91 96 102 94 87 79 60 34 50 78 91 102 104 107 107 106 102
206 214 212 195 186 179 168 166 156 154 148 146 144 144 141 141 145 136 125 114 107 103 108 104 99 99 100 100 100 99 92 87 78 55 37 68 79 93 100 104 108 111 105
212 209 205 200 192 173 175 179 167 158 150 145 146 148 142 143 147 141 137 126 116 115 113 115 119 112 103 106 101 99 97 90 78 72 52 50 61 72 86 90 93 108 111
211 201 196 195 185 172 178 179 172 158 151 151 154 155 147 145 147 142 142 138 134 124 113 102 95 96 97 92 93 97 93 90 93 83 72 60 49 50 68 74 73 81 91
202 195 196 187 177 174 171 175 174 159 151 154 155 160 158 156 154 145 145 146 135 126 123 122 118 100 92 93 90 89 93 93 92 89 78 72 63 46 47 59 59 63 76
199 191 188 186 178 175 169 169 174 161 156 157 154 158 165 165 160 153 156 151 140 130 126 130 112 115 117 102 89 72 72 92 102 98 89 81 78 75 55 49 49 46 59
197 187 184 183 182 174 162 150 160 152 156 158 161 166 165 166 163 158 154 150 146 139 134 127 117 89 113 119 92 62 38 49 73 94 107 90 79 81 70 52 35 32 42
184 182 186 183 182 165 155 166 177 177 171 169 175 171 174 169 166 164 157 157 157 156 154 141 124 107 88 98 87 54 18 38 68 75 99 102 72 69 72 66 58 59 22
190 189 189 189 186 179 176 174 175 161 162 169 174 170 177 179 174 171 166 167 167 156 150 148 135 125 112 130 119 114 71 350 354 37 90 164 176 88 89 59 70 78 61
197 195 196 195 191 186 178 159 144 126 111 141 171 179 181 181 184 178 177 171 170 167 171 170 162 148 154 176 132 146 155 199 254 307 297 288 214 152 208 230 211 27 38
205 197 195 193 192 184 174 170 167 170 172 179 177 185 184 183 184 182 179 177 175 174 174 177 172 163 156 165 162 52 124 147 154 197 293 302 290 251 235 222 236 240 268
205 193 191 187 188 181 180 181 177 177 174 160 160 173 183 187 186 183 179 178 179 179 178 176 170 169 166 169 166 150 103 66 125 154 210 261 286 261 253 234 230 242 250
202 190 185 180 186 183 183 184 183 179 173 166 171 177 181 185 188 187 179 179 180 178 180 180 177 177 176 169 164 159 156 160 177 164 174 211 243 263 262 249 235 237 246